Temp
7 7 7 7 7 7 7 8 8 9 9 9 9 9 10 11 11 11 12 12 12 12 12 12 11 12 11 12 11 9 9 12 13 13 13 13 13 13 12 12 12 12 12 13 12
7 7 7 7 7 7 8 8 8 8 8 9 9 9 9 10 11 11 12 12 11 11 12 12 12 11 11 11 11 10 9 12 14 12 12 12 12 12 12 12 13 13 13 13 12
7 7 7 7 7 7 8 8 8 8 8 9 9 9 9 9 10 11 11 11 11 11 12 12 11 10 10 10 11 11 10 12 12 12 12 11 12 12 12 12 12 12 12 12 12
7 7 7 7 7 7 7 7 8 8 8 8 8 8 9 9 9 10 11 11 11 11 12 12 11 11 11 11 13 9 11 11 12 12 11 11 11 11 11 12 12 12 12 12 12
6 6 6 6 6 6 7 7 7 7 7 8 8 8 8 9 10 9 10 11 11 11 11 12 11 12 11 12 11 10 12 11 11 11 11 11 11 11 11 12 12 12 12 12 12
5 5 5 5 5 6 6 6 6 6 7 7 7 8 8 9 10 10 9 10 10 10 10 11 11 11 9 10 10 12 11 10 10 10 10 10 11 11 12 12 12 12 12 12 12
4 4 5 5 5 5 5 6 6 6 6 6 7 7 8 10 9 9 9 9 10 10 10 10 10 9 9 9 9 9 9 9 9 9 10 10 11 11 12 12 12 12 12 12 12
2 3 3 4 4 5 5 5 5 5 6 6 7 7 9 9 8 8 9 10 10 10 10 10 9 9 8 9 9 9 9 9 9 10 11 11 11 11 12 12 12 12 12 12 12
-1 -1 -0 0 2 3 4 4 5 5 5 5 6 6 8 9 9 9 9 8 9 9 9 9 8 9 9 8 8 8 8 9 9 10 10 11 11 12 13 12 12 12 12 12 12
-1 -1 -1 -1 -1 -0 0 2 4 4 5 5 5 5 7 9 9 9 9 8 7 8 8 8 7 7 7 7 7 9 9 9 9 12 10 11 11 12 13 12 13 13 12 12 12
-2 -2 -2 -2 -2 -1 -1 -0 1 3 4 5 6 6 7 7 8 8 8 8 7 7 6 8 7 6 9 10 10 8 8 9 10 12 10 11 11 12 13 13 13 13 13 12 12
-3 -3 -2 -2 -2 -2 -2 -1 -0 -1 3 4 5 6 6 6 7 7 8 8 7 7 6 6 6 9 8 9 8 8 8 8 10 11 10 11 11 12 13 13 13 13 13 13 13
-4 -4 -4 -3 -2 -3 -2 -2 -2 -1 -1 5 5 6 7 5 7 8 7 7 8 8 6 6 8 7 7 8 8 8 8 8 9 11 11 11 11 12 13 13 13 13 13 13 13
-5 -4 -4 -4 -4 -3 -3 -3 -2 -3 -3 2 5 6 6 6 5 7 7 8 7 7 7 7 7 7 7 8 8 7 9 9 9 9 9 11 10 12 13 13 13 13 13 13 13
-5 -5 -4 -4 -4 -4 -4 -4 -4 -4 -5 4 4 4 6 7 7 8 6 6 8 7 6 6 7 7 7 8 8 8 10 9 10 9 10 12 10 12 13 13 13 13 13 13 12
-5 -5 -5 -5 -4 -5 -4 -5 -5 -5 -5 3 2 1 3 5 6 7 8 6 7 6 7 8 8 7 8 8 8 10 9 9 9 10 9 11 11 12 13 13 13 13 13 13 12
-5 -5 -5 -5 -5 -5 -5 -6 -6 -5 -0 1 1 1 1 3 4 5 7 5 5 5 5 6 6 7 7 7 8 8 8 8 6 7 7 12 11 13 13 13 13 13 13 12 12
-5 -6 -6 -6 -6 -6 -6 -7 -5 -4 -2 -2 -1 1 3 3 2 4 6 6 6 6 6 6 6 6 7 8 8 9 9 8 7 6 8 12 12 13 14 14 13 13 13 12 12
-6 -6 -6 -7 -7 -7 -7 -7 -6 -5 -4 -4 -3 -1 -1 1 2 3 5 6 6 6 7 6 6 8 9 8 8 10 9 10 10 11 11 12 13 13 13 13 13 13 13 13 11
-6 -7 -7 -7 -7 -7 -8 -7 -7 -6 -5 -4 -5 -4 -4 -4 -1 1 4 6 5 6 6 8 7 8 9 9 9 9 10 10 10 7 8 10 12 12 13 13 12 13 13 12 11
-7 -7 -7 -7 -7 -8 -8 -8 -7 -6 -6 -6 -5 -5 -5 -5 -4 -2 1 4 6 6 6 7 8 9 9 9 10 9 10 10 12 12 6 5 11 13 13 13 13 13 12 11 11
-7 -7 -7 -7 -7 -7 -8 -7 -7 -7 -6 -6 -6 -5 -5 -5 -4 -4 -1 1 2 4 6 7 7 7 10 10 10 10 10 11 12 10 12 12 11 13 13 13 13 12 12 11 11
-7 -7 -7 -8 -8 -7 -7 -7 -7 -7 -7 -6 -6 -6 -4 -5 -4 -4 -2 1 1 2 5 7 7 8 9 10 10 11 11 12 12 13 12 10 11 13 13 13 13 12 12 11 11
-8 -8 -8 -7 -7 -8 -8 -7 -7 -7 -7 -6 -6 -5 -5 -4 -5 -4 -2 -1 1 1 3 5 7 8 8 10 11 11 12 12 13 13 13 12 13 12 13 13 12 12 12 12 11
-8 -9 -8 -8 -7 -8 -8 -7 -7 -7 -7 -6 -6 -6 -5 -5 -5 -4 -4 -3 -0 1 2 5 7 8 10 10 12 12 13 12 13 13 13 13 13 12 12 13 13 13 12 11 11
-8 -8 -8 -7 -7 -8 -8 -7 -7 -7 -7 -6 -6 -5 -6 -6 -5 -5 -5 -4 -4 2 1 2 7 9 10 11 11 11 12 12 13 13 13 13 13 13 13 12 12 12 12 11 11
-7 -8 -8 -7 -7 -7 -8 -8 -7 -7 -7 -7 -7 -7 -5 -5 -5 -5 -5 -5 -5 -3 -2 -1 2 7 9 10 11 10 11 12 13 13 13 12 13 13 12 12 12 12 12 11 11
Height
3145 3145 3145 3145 3145 3145 3145 3146 3146 3147 3148 3150 3151 3153 3153 3154 3153 3155 3160 3166 3165 3165 3167 3169 3168 3169 3170 3170 3170 3170 3169 3163 3162 3164 3163 3163 3160 3161 3162 3159 3158 3156 3153 3152 3150
3135 3135 3135 3135 3136 3137 3137 3137 3137 3138 3140 3142 3143 3144 3145 3145 3146 3150 3161 3157 3160 3158 3162 3164 3166 3164 3165 3165 3165 3162 3159 3156 3159 3159 3157 3158 3155 3156 3156 3153 3152 3151 3148 3147 3147
3125 3124 3124 3124 3125 3126 3126 3127 3128 3129 3131 3132 3135 3137 3135 3136 3138 3146 3147 3150 3153 3153 3156 3157 3158 3157 3157 3159 3159 3153 3148 3151 3154 3153 3153 3152 3150 3151 3150 3148 3148 3146 3143 3142 3141
3114 3114 3114 3114 3114 3114 3115 3116 3117 3119 3121 3121 3123 3126 3127 3126 3127 3135 3141 3144 3146 3146 3148 3149 3150 3149 3149 3149 3151 3146 3145 3145 3146 3148 3148 3146 3146 3144 3146 3145 3143 3142 3140 3138 3137
3107 3105 3103 3104 3104 3104 3105 3105 3107 3109 3110 3111 3113 3115 3115 3112 3111 3133 3135 3137 3137 3138 3141 3143 3142 3144 3140 3142 3145 3141 3139 3139 3140 3142 3142 3141 3140 3140 3139 3140 3140 3138 3137 3134 3133
3097 3096 3095 3094 3093 3093 3093 3095 3096 3098 3099 3100 3102 3102 3100 3089 3115 3124 3125 3125 3128 3131 3134 3136 3137 3139 3134 3135 3137 3136 3134 3134 3135 3136 3137 3136 3133 3135 3133 3136 3134 3133 3131 3130 3129
3085 3083 3083 3083 3083 3083 3082 3083 3085 3088 3090 3090 3089 3088 3084 3080 3102 3107 3110 3117 3123 3122 3125 3129 3131 3131 3129 3130 3132 3129 3127 3128 3128 3130 3128 3133 3125 3124 3128 3130 3128 3127 3126 3125 3125
3075 3073 3071 3070 3069 3069 3070 3072 3075 3077 3077 3077 3078 3076 3062 3085 3089 3091 3100 3106 3107 3113 3118 3123 3124 3122 3124 3125 3124 3124 3123 3118 3119 3124 3122 3130 3116 3118 3120 3123 3123 3123 3122 3121 3119
3068 3066 3063 3059 3057 3056 3058 3059 3063 3065 3065 3067 3068 3065 3056 3071 3078 3089 3091 3091 3101 3106 3110 3116 3113 3115 3119 3118 3118 3116 3112 3112 3111 3117 3118 3122 3114 3112 3114 3114 3114 3116 3117 3117 3115
3062 3060 3057 3054 3051 3048 3046 3046 3048 3052 3056 3054 3056 3058 3054 3065 3070 3074 3079 3085 3091 3100 3102 3102 3104 3106 3108 3109 3102 3105 3108 3106 3106 3106 3115 3112 3110 3107 3107 3107 3106 3108 3111 3111 3109
3056 3054 3051 3049 3046 3043 3044 3042 3041 3042 3038 3038 3043 3045 3053 3056 3058 3066 3070 3075 3081 3085 3087 3092 3092 3086 3091 3095 3100 3104 3105 3103 3101 3099 3110 3107 3105 3098 3099 3100 3100 3102 3104 3104 3103
3049 3047 3045 3042 3040 3038 3038 3036 3033 3029 3023 3024 3028 3028 3043 3051 3053 3057 3059 3062 3066 3067 3079 3084 3069 3080 3090 3094 3095 3098 3099 3099 3097 3096 3105 3101 3098 3094 3092 3094 3095 3097 3098 3098 3098
3042 3039 3038 3035 3034 3032 3033 3032 3027 3021 3014 3012 3015 3016 3030 3044 3039 3051 3051 3055 3058 3063 3066 3063 3067 3078 3083 3086 3089 3089 3093 3093 3096 3093 3097 3097 3092 3090 3088 3089 3091 3092 3093 3094 3093
3035 3033 3030 3029 3030 3026 3027 3025 3022 3018 3016 2998 3003 3002 3016 3029 3022 3041 3043 3052 3051 3052 3062 3060 3067 3071 3073 3076 3082 3081 3087 3090 3094 3094 3092 3092 3087 3086 3086 3086 3087 3088 3089 3088 3087
3029 3027 3024 3022 3022 3021 3021 3021 3019 3019 3018 3001 2998 2999 3003 3010 3012 3022 3036 3041 3039 3045 3054 3040 3053 3061 3064 3064 3074 3072 3083 3086 3087 3089 3090 3083 3087 3078 3081 3079 3080 3081 3083 3082 3083
3023 3020 3018 3017 3016 3015 3016 3017 3019 3021 3006 2996 2998 2997 2997 2997 3003 3019 3021 3029 3036 3041 3041 3044 3050 3055 3057 3064 3069 3073 3080 3082 3085 3086 3084 3082 3085 3069 3075 3075 3075 3076 3077 3078 3079
3018 3015 3012 3011 3011 3009 3011 3014 3018 3010 3001 2996 2991 2989 2990 2992 2996 3008 3010 3017 3021 3033 3033 3043 3042 3050 3053 3056 3064 3069 3075 3080 3082 3081 3070 3076 3076 3068 3069 3071 3072 3073 3074 3075 3076
3013 3009 3007 3005 3004 3004 3006 3011 3008 3001 2998 2993 2991 2987 2987 2996 2996 3001 3007 3008 3015 3020 3025 3032 3035 3035 3039 3045 3052 3058 3066 3068 3074 3073 3069 3071 3067 3064 3065 3067 3069 3069 3073 3073 3075
3007 3004 3001 2999 2998 2998 3002 3003 3001 3001 3003 2996 2989 2989 2986 2987 2991 2993 2997 2998 3001 3008 3015 3022 3024 3028 3031 3041 3048 3049 3053 3063 3067 3066 3063 3062 3062 3061 3059 3062 3064 3067 3069 3071 3073
3003 2999 2996 2995 2994 2995 2998 2998 2998 3000 2999 2999 2997 2995 2992 2988 2987 2986 2991 2992 2999 3005 3015 3019 3020 3021 3028 3037 3038 3037 3053 3060 3059 3064 3063 3056 3056 3056 3057 3058 3061 3064 3066 3068 3070
3000 2997 2996 2993 2994 2994 2995 2995 2996 2997 3000 2997 2996 2996 2997 2989 2987 2986 2985 2993 2997 3006 3011 3014 3017 3018 3023 3016 3019 3035 3042 3050 3051 3049 3052 3059 3050 3052 3057 3056 3058 3061 3064 3066 3067
2999 2997 2995 2994 2995 2994 2993 2993 2993 2993 2995 2993 2993 2995 2995 2990 2983 2985 2984 2985 2988 2993 2998 3002 3012 3015 3004 3014 3023 3030 3032 3038 3039 3041 3042 3046 3043 3050 3050 3053 3057 3060 3063 3065 3066
2997 2995 2994 2993 2994 2992 2992 2992 2992 2990 2990 2989 2990 2992 2992 2991 2989 2982 2980 2979 2981 2984 2990 3000 3001 3008 3004 3011 3014 3015 3021 3028 3032 3036 3035 3042 3041 3047 3046 3051 3055 3057 3061 3063 3064
2996 2995 2993 2990 2991 2993 2991 2989 2988 2988 2985 2985 2986 2987 2987 2986 2985 2981 2978 2975 2977 2980 2983 2984 2989 2991 2991 2994 3003 3007 3013 3019 3024 3026 3029 3033 3039 3044 3045 3048 3052 3055 3058 3060 3061
2996 2995 2994 2993 2993 2992 2991 2988 2986 2984 2982 2981 2981 2982 2982 2981 2979 2979 2980 2974 2976 2975 2976 2976 2980 2984 2985 2993 2998 3002 3005 3009 3014 3018 3022 3030 3036 3042 3044 3047 3049 3052 3056 3058 3059
2998 2994 2992 2990 2990 2989 2988 2986 2983 2981 2980 2977 2979 2979 2977 2977 2977 2975 2976 2978 2973 2970 2969 2971 2972 2981 2983 2987 2992 2995 2999 3004 3010 3014 3019 3027 3031 3037 3041 3045 3047 3050 3053 3055 3058
2998 2994 2991 2989 2988 2987 2986 2984 2980 2978 2976 2975 2973 2973 2973 2974 2973 2971 2969 2970 2971 2972 2970 2972 2971 2974 2974 2981 2986 2990 2989 2996 3001 3007 3014 3020 3024 3033 3035 3040 3044 3047 3049 3052 3056
Wind_Speed
37 38 40 42 40 38 35 40 44 44 43 41 36 34 34 32 29 31 26 19 18 18 19 23 19 21 22 23 21 18 23 27 28 25 18 11 20 16 25 19 11 19 24 29 23
41 40 40 41 43 41 40 39 38 43 45 46 44 42 39 38 38 36 27 24 23 20 21 22 26 24 25 24 26 29 32 33 26 27 22 19 20 23 31 31 28 24 24 24 24
39 39 40 41 41 41 39 39 40 41 43 45 50 48 47 44 44 38 29 29 26 24 24 24 26 28 29 29 28 36 40 36 32 31 24 24 24 22 32 37 33 30 28 23 19
38 39 39 40 41 40 40 40 40 40 41 43 44 49 52 52 49 39 34 31 30 28 28 28 30 33 33 36 26 41 39 39 38 31 27 29 28 34 39 38 35 21 21 23 19
37 39 39 40 41 40 40 40 39 39 39 40 42 44 49 60 63 39 34 32 31 31 26 26 30 29 37 33 32 37 38 41 36 29 27 29 38 40 41 38 25 23 28 26 25
39 40 41 40 41 40 41 41 40 39 39 41 41 42 47 65 56 46 37 40 37 33 28 28 30 31 37 31 35 31 37 38 32 30 34 39 42 38 36 30 22 24 29 28 29
40 40 41 42 43 42 41 42 40 39 39 42 41 43 52 56 45 46 46 42 37 40 34 29 27 27 30 32 32 35 41 35 32 35 42 40 46 43 37 30 26 24 30 31 31
33 36 40 42 42 44 44 43 41 39 40 42 43 45 59 43 43 45 44 45 45 44 40 37 36 31 33 31 33 36 37 40 41 36 36 33 46 41 38 30 31 31 32 31 30
24 23 24 27 33 40 43 41 40 41 41 41 42 48 57 47 42 33 38 43 37 35 34 37 25 26 28 35 34 36 38 44 45 39 36 32 43 39 27 35 37 36 30 26 28
26 25 24 23 24 25 26 31 40 39 40 45 45 45 46 31 15 31 35 37 38 35 33 34 28 32 28 28 36 35 39 39 43 38 35 37 38 38 34 40 39 35 28 25 26
26 26 25 24 23 23 20 19 23 34 45 51 51 46 25 14 27 32 28 37 42 41 38 37 36 45 42 42 37 34 30 34 46 35 34 34 34 37 36 30 22 25 22 23 21
27 25 25 27 25 24 19 16 21 27 42 52 54 58 45 29 22 24 33 37 50 54 43 40 51 44 39 38 38 37 35 37 40 37 33 35 40 37 32 25 24 22 26 23 27
30 29 25 21 22 24 19 16 22 29 38 48 52 59 51 43 45 29 27 32 46 52 54 55 43 43 43 40 38 40 39 36 38 33 36 38 41 33 16 17 21 25 25 26 29
25 23 23 20 17 18 16 14 17 24 20 36 39 58 51 45 58 45 42 34 35 50 54 56 52 22 33 51 40 43 38 40 33 35 25 19 15 28 22 21 17 23 24 28 33
24 22 22 20 16 16 15 13 13 11 5 6 8 22 30 50 49 44 45 41 43 43 51 54 43 56 43 38 37 43 32 35 31 37 36 36 21 33 24 29 26 29 26 25 11
24 23 23 20 16 16 15 16 16 7 9 1 10 12 23 35 49 31 42 49 43 40 43 45 40 34 45 45 31 23 32 32 33 36 20 38 29 42 31 30 26 14 17 11 8
26 26 24 20 13 13 11 19 13 10 6 3 16 19 17 29 42 34 35 60 45 42 47 36 42 36 25 41 39 33 32 11 8 9 12 28 21 27 31 23 11 14 13 8 7
27 26 23 20 15 14 14 20 15 12 34 25 31 22 9 4 27 46 22 58 59 46 27 39 25 45 43 39 36 45 39 19 7 6 5 17 10 31 11 13 18 15 15 6 6
27 23 18 15 13 14 16 24 12 18 15 22 31 15 16 8 13 18 39 46 58 59 36 33 32 12 43 41 40 42 41 44 30 19 4 14 24 24 29 21 25 23 13 8 8
25 19 8 5 8 11 15 23 16 11 17 18 15 12 26 28 13 2 26 42 49 60 45 16 19 37 26 33 48 53 31 29 19 10 6 6 14 21 11 19 24 17 10 6 7
20 16 9 6 5 10 16 20 24 29 14 17 19 21 19 22 22 17 5 8 33 39 54 44 29 4 27 36 52 43 40 32 29 29 8 3 19 34 20 25 25 14 7 9 5
18 10 7 6 4 8 16 14 14 16 18 23 17 14 13 19 25 16 13 5 7 15 41 61 24 36 35 16 34 45 42 41 29 10 18 22 28 20 17 28 23 14 12 9 5
18 8 7 5 5 11 10 12 19 16 11 16 16 15 12 18 15 7 7 16 7 2 14 40 52 26 25 33 26 36 48 43 41 30 27 14 24 23 17 26 20 18 13 3 6
17 10 8 10 12 9 14 16 18 16 18 14 13 16 15 16 21 26 21 15 10 13 4 30 41 55 25 32 36 35 40 44 40 29 27 32 27 20 28 25 22 17 10 7 8
17 8 10 13 8 15 14 18 22 22 10 7 15 14 13 15 16 27 32 34 19 9 6 18 40 46 53 40 26 39 43 46 45 41 32 32 31 26 27 24 21 15 16 13 12
17 14 12 12 8 13 12 15 23 19 12 11 11 9 15 18 18 25 31 25 20 4 13 0 25 43 48 45 43 25 30 48 46 43 34 31 31 28 25 27 21 18 19 16 12
21 15 14 16 15 15 14 16 19 18 8 9 13 15 13 14 18 16 24 40 25 32 29 20 7 25 40 45 47 37 34 42 52 46 39 34 36 30 26 31 25 21 21 19 12
Wind_Direction
267 266 262 261 263 269 266 258 253 251 250 251 252 248 244 247 246 245 246 244 247 250 256 262 252 252 251 262 258 248 243 255 266 266 283 287 287 282 303 295 295 292 290 302 284
269 266 263 261 261 263 263 260 258 259 257 254 254 251 253 243 241 239 238 237 247 250 254 260 257 254 252 257 250 241 237 259 285 278 269 281 279 286 297 294 286 292 294 301 281
267 266 266 264 264 261 258 255 256 256 258 257 255 255 256 252 248 238 242 238 246 250 253 250 249 242 243 247 250 250 247 272 273 275 275 279 279 283 289 291 289 291 297 288 273
270 268 264 263 262 262 259 255 256 256 256 257 257 252 252 253 255 250 244 240 249 252 252 248 245 240 246 242 268 245 259 263 273 275 270 274 284 281 287 280 294 275 294 280 276
266 268 267 265 262 260 258 259 257 256 256 254 253 251 248 250 246 250 251 251 251 254 254 254 250 259 248 253 251 248 269 265 267 269 270 281 278 278 276 283 276 277 284 278 276
270 267 267 265 265 262 260 258 258 256 255 255 253 251 250 249 247 245 248 250 252 252 248 246 256 256 247 253 251 269 267 266 261 257 270 275 279 282 274 282 271 266 263 274 273
275 271 266 266 264 262 260 259 257 256 254 252 251 253 252 253 250 243 243 246 245 246 242 243 243 242 249 247 255 258 259 261 257 261 265 268 274 272 272 272 275 275 264 274 272
288 283 279 273 267 264 261 258 258 256 252 252 251 251 255 255 249 238 240 241 236 236 240 239 241 245 242 248 247 246 246 260 255 252 254 265 273 270 268 269 266 266 266 269 280
299 296 292 288 283 275 266 263 254 251 250 250 250 252 256 254 250 248 242 241 242 237 235 236 230 235 232 235 245 243 250 249 257 252 261 261 267 267 268 273 270 259 260 268 277
298 300 300 298 293 288 285 274 260 251 248 245 244 247 248 259 237 233 229 229 228 230 229 221 214 223 223 217 227 234 238 249 256 268 257 263 263 261 271 276 263 259 257 271 271
294 295 296 296 296 295 295 290 280 253 244 243 247 251 243 236 225 224 221 218 211 212 221 221 216 219 224 226 239 242 245 252 253 267 266 271 279 279 278 275 251 242 255 267 280
295 292 289 288 288 289 297 294 276 254 245 242 242 244 231 227 217 191 204 207 205 212 209 214 224 235 229 234 233 237 245 253 260 261 262 264 272 286 282 263 254 256 259 271 284
295 298 299 290 277 280 284 288 281 265 262 247 243 244 241 227 231 199 207 207 214 214 208 218 235 225 224 231 229 235 235 246 253 266 260 268 278 290 262 247 251 252 261 276 273
302 300 299 296 285 275 274 263 257 260 272 269 258 250 238 229 236 225 228 224 217 221 219 225 223 219 227 229 228 234 233 239 250 260 263 262 283 283 275 271 259 260 261 270 282
307 306 301 299 290 268 257 253 249 271 297 286 300 252 239 233 235 227 215 221 218 216 214 222 227 226 226 229 228 234 237 239 242 253 260 269 278 276 271 284 276 266 266 276 229
310 308 302 298 294 274 256 228 216 211 250 335 107 347 238 225 225 218 214 212 225 221 229 238 232 235 239 232 229 242 236 234 247 256 254 254 258 272 268 281 284 266 248 239 264
315 310 306 299 291 276 236 212 206 219 265 122 340 324 245 243 215 200 202 201 200 205 221 229 236 228 228 228 223 231 229 238 251 220 242 256 236 252 276 284 262 251 236 237 253
315 307 304 298 284 264 220 206 234 242 250 288 308 320 312 298 225 205 211 205 209 203 206 215 232 231 217 224 221 220 220 212 185 222 240 228 236 266 276 253 257 232 227 271 315
320 314 307 289 264 252 224 209 231 250 285 309 321 334 339 22 13 217 207 211 210 204 203 205 226 211 231 214 213 218 224 229 238 260 217 240 257 269 281 250 248 224 231 267 269
329 339 321 309 265 238 222 226 243 243 262 293 335 334 335 335 326 36 203 219 213 211 210 209 225 231 237 218 214 223 219 229 219 204 212 240 244 270 283 208 206 212 249 237 231
334 343 333 302 313 229 231 245 252 251 275 290 296 310 323 318 310 318 245 133 212 222 212 219 229 146 218 215 211 214 225 227 243 221 192 211 253 253 261 222 208 217 212 221 259
336 0 319 313 265 282 263 282 316 294 252 279 294 304 307 321 302 297 268 254 359 200 217 218 230 243 228 214 225 217 220 220 222 211 208 221 251 244 270 223 214 199 201 239 244
343 2 0 302 286 345 335 292 298 308 306 284 297 304 263 281 296 299 270 234 261 49 202 218 220 236 256 247 225 223 222 221 226 220 203 189 243 245 233 188 188 191 206 224 247
342 3 360 332 295 343 338 325 325 311 300 268 279 291 273 264 262 273 275 284 227 306 237 211 213 212 221 228 216 221 222 220 218 202 204 211 234 227 179 183 185 201 214 225 242
352 340 327 318 326 314 308 309 327 323 317 245 274 287 313 279 270 264 274 277 281 269 338 205 212 219 227 223 215 222 222 216 212 213 206 214 222 201 193 198 219 219 212 218 226
357 345 324 324 332 329 328 331 325 331 301 292 293 311 297 287 270 277 268 265 308 212 352 91 215 215 226 230 227 225 228 220 215 213 213 215 222 222 218 220 212 215 222 214 218
360 342 319 317 316 314 324 330 354 335 322 269 290 306 293 304 305 295 278 258 300 303 308 306 229 209 221 225 231 236 225 214 213 217 213 205 218 213 207 214 216 219 217 218 218